This demonstration page uses our WeatherBlox Daily Observations layout. Learn more.

41.55636, -103.73856

Hourly Observations for July 1, 2019

Temp ( °F °C ) Dew Point ( °F °C ) Humidity (%) Winds ( mph kmh ) Pressure ( in mb ) Visibility ( mi km ) Precip ( " mm )
12:53 am 00:53 Clear 64 18 N/A N/A WNW 6 9 29.91 1013 10 16.09344 0 0
1:53 am 01:53 Clear 64 18 N/A N/A N 3 6 29.88 1012 10 16.09344 0 0
2:53 am 02:53 Clear 63 17 N/A N/A NNW 6 9 29.88 1012 10 16.09344 0 0
3:53 am 03:53 Clear 64 18 N/A N/A WNW 7 11 29.88 1012 10 16.09344 0 0
4:53 am 04:53 Clear 64 18 N/A N/A WNW 3 6 29.88 1012 10 16.09344 0 0
5:53 am 05:53 Sunny 66 19 N/A N/A N 12 19 29.91 1013 10 16.09344 0 0
6:12 am 06:12 Partly Cloudy 64 18 N/A N/A NE 17 28 29.94 1014 10 16.09344 0 0
6:31 am 06:31 Mostly Cloudy 63 17 N/A N/A NE 20 31 29.97 1015 10 16.09344 0 0
6:53 am 06:53 Mostly Cloudy 63 17 N/A N/A ENE 14 22 29.94 1014 10 16.09344 0 0
7:07 am 07:07 Partly Cloudy 63 17 N/A N/A ENE 13 20 29.97 1015 10 16.09344 0 0
7:15 am 07:15 Mostly Cloudy 63 17 N/A N/A ENE 12 19 29.97 1015 10 16.09344 0 0
7:23 am 07:23 Mostly Cloudy 63 17 N/A N/A ENE 12 19 29.97 1015 10 16.09344 0 0
7:50 am 07:50 Cloudy with Light Rain 63 17 N/A N/A ENE 7 11 29.97 1015 10 16.09344 0.001 0.001
7:53 am 07:53 Cloudy with Light Rain 63 17 N/A N/A ENE 6 9 29.97 1015 10 16.09344 0.001 0.001
8:15 am 08:15 Cloudy with Light Rain 64 18 N/A N/A ENE 7 11 29.97 1015 10 16.09344 0.001 0.001
8:53 am 08:53 Cloudy 66 19 N/A N/A E 7 11 29.97 1015 10 16.09344 0.001 0.001
9:53 am 09:53 Cloudy 66 19 N/A N/A Calm 30 1016 10 16.09344 0 0
10:20 am 10:20 Mostly Cloudy N/A N/A N/A Calm N/A 10 16.09344 0 0
10:53 am 10:53 Mostly Cloudy 71 21.7 70 21.1 96 96 Calm 30 1016 10 16.09344 0 0
11:53 am 11:53 Mostly Sunny 75 23.9 72 22.2 90 90 NW 7 11 29.97 1015 10 16.09344 0 0
12:53 pm 12:53 Cloudy 76 24.4 73 22.8 91 91 VRB 3 6 29.94 1014 10 16.09344 0 0
1:53 pm 13:53 Partly Cloudy 77 25 74 23.3 90 90 SE 3 6 29.94 1014 10 16.09344 0 0
2:53 pm 14:53 Partly Cloudy 81 27.2 77 25 88 88 N 7 11 29.91 1013 10 16.09344 0 0
3:53 pm 15:53 Mostly Sunny 82 28 N/A N/A VRB 5 7 29.88 1012 10 16.09344 0 0
4:53 pm 16:53 Sunny 82 28 N/A N/A E 6 9 29.85 1011 10 16.09344 0 0
5:53 pm 17:53 Sunny 79 26 N/A N/A E 8 13 29.85 1011 10 16.09344 0 0
6:53 pm 18:53 Mostly Cloudy 79 26 N/A N/A ENE 6 9 29.88 1012 10 16.09344 0 0
7:53 pm 19:53 Mostly Cloudy with Nearby Thunderstorms 75 24 N/A N/A NE 12 19 29.91 1013 10 16.09344 0 0
8:22 pm 20:22 Cloudy 73 23 N/A N/A N 20 31 29.83 1010 10 16.09344 0 0
8:33 pm 20:33 Cloudy with Light Thunderstorms 72 22 N/A N/A N 18 30 29.85 1011 10 16.09344 0.001 0.001
8:48 pm 20:48 Cloudy with Nearby Thunderstorms 70 21 N/A N/A N 12 19 29.85 1011 6 9.656064 0 0
8:53 pm 20:53 Cloudy with Nearby Thunderstorms 70 21 N/A N/A NNE 12 19 29.91 1013 7 11.265408 0.03 0.762
9:09 pm 21:09 Cloudy 70 21 N/A N/A E 9 15 29.85 1011 10 16.09344 0.001 0.001
9:53 pm 21:53 Cloudy with Light Rain 68 20 N/A N/A SW 8 13 29.94 1014 10 16.09344 0.001 0.001
10:53 pm 22:53 Mostly Cloudy with Light Rain 68 20 N/A N/A S 12 19 29.85 1011 10 16.09344 0.01 0.254
11:53 pm 23:53 Clear 70 21 N/A N/A NW 5 7 29.85 1011 10 16.09344 0.001 0.001

Powered by AerisWeather